This demonstration page uses our WeatherBlox Daily Observations layout. Learn more.

39.29038, -76.61219

Hourly Observations for November 5, 2019

Temp ( °F °C ) Dew Point ( °F °C ) Humidity (%) Winds ( mph kmh ) Pressure ( in mb ) Visibility ( mi km ) Precip ( " mm )
12:54 am 00:54 undefined 48 8.9 41 5 77 77 undefined N/A 30.24 1024 N/A 0 0
1:54 am 01:54 undefined 47 8.3 42 5.6 83 83 undefined N/A 30.22 1024 N/A 0 0
2:54 am 02:54 undefined 47 8.3 41 5 80 80 undefined N/A 30.21 1023 N/A 0 0
3:54 am 03:54 undefined 47 8.3 42 5.6 83 83 undefined N/A 30.21 1023 N/A 0 0
4:54 am 04:54 undefined 45 7.2 42 5.6 90 90 undefined N/A 30.21 1023 N/A 0 0
5:54 am 05:54 undefined 45 7.2 41 5 86 86 undefined N/A 30.2 1023 N/A 0 0
6:54 am 06:54 undefined 45 7.2 41 5 86 86 undefined N/A 30.2 1023 N/A 0 0
7:54 am 07:54 undefined 50 10 44 6.7 80 80 undefined N/A 30.2 1023 N/A 0 0
8:54 am 08:54 undefined 53 11.7 44 6.7 72 72 undefined N/A 30.2 1023 N/A 0 0
9:54 am 09:54 undefined 55 12.8 42 5.6 62 62 undefined N/A 30.19 1022 N/A 0 0
10:54 am 10:54 undefined 57 13.9 43 6.1 60 60 undefined N/A 30.19 1022 N/A 0 0
11:54 am 11:54 undefined 58 14.4 42 5.6 56 56 undefined N/A 30.17 1022 N/A 0 0
12:54 pm 12:54 undefined 61 16.1 43 6.1 52 52 undefined N/A 30.15 1021 N/A 0 0
1:54 pm 13:54 undefined 63 17.2 42 5.6 47 47 undefined N/A 30.14 1021 N/A 0 0
2:54 pm 14:54 undefined 65 18.3 35 1.7 33 33 undefined N/A 30.15 1021 N/A 0 0
3:54 pm 15:54 undefined 64 17.8 34 1.1 33 33 undefined N/A 30.15 1021 N/A 0 0
4:54 pm 16:54 undefined 62 16.7 34 1.1 35 35 undefined N/A 30.17 1022 N/A 0 0
5:54 pm 17:54 undefined 61 16.1 35 1.7 38 38 undefined N/A 30.17 1022 N/A 0 0
6:54 pm 18:54 undefined 60 15.6 35 1.7 39 39 undefined N/A 30.19 1022 N/A 0 0
7:54 pm 19:54 undefined 59 15 36 2.2 42 42 undefined N/A 30.19 1023 N/A 0 0
8:54 pm 20:54 undefined 57 13.9 36 2.2 45 45 undefined N/A 30.22 1023 N/A 0 0
9:54 pm 21:54 undefined 56 13.3 38 3.3 51 51 undefined N/A 30.24 1024 N/A 0 0
10:54 pm 22:54 undefined 54 12.2 38 3.3 55 55 undefined N/A 30.25 1025 N/A 0 0
11:54 pm 23:54 undefined 54 12.2 37 2.8 53 53 undefined N/A 30.27 1025 N/A 0 0

Powered by AerisWeather